sat.trackr.live / text

‹ back to catalog

BEIDOU-2 G7 (C03)

NORAD 41586 · 2016-037A

PAYLOAD ACTIVE UNKNOWN

§ Identity

Operator
Country
PRC
Launch date
2016-06-12
Launch site
XICLF
Launch vehicle
Mass (kg)
RCS (m²)
19.01

Purposes: comms, nav

External: N2YO · Heavens-Above · Gunter

§ Orbital elements

Epoch: 2026-05-25T00:50:43.778688Z

Period
1,436.03 min
Inclination
1.6652°
Eccentricity
0.0006890
Mean motion
1.00276278 rev/d
Perigee alt
35,756.3 km
Apogee alt
35,814.4 km
Semi-major
42,163.5 km
B*
0.0000e+0
RAAN
69.1260°
Arg perigee
355.6766°
Mean anomaly
300.9787°
Rev number
665

§ Raw data

BEIDOU-2 G7 (C03)1 41586U 16037A   26145.03522892 -.00000356  00000+0  00000+0 0  99932 41586   1.6652  69.1260 0006890 355.6766 300.9787  1.00276278  6655

JSON: /api/v1/satellites/41586 · /tle

For live sub-satellite position, see the globe view (requires WebGL).

§ Visibility from observer

Set your observer location to see the next 7 days of passes ≥ 10°. The values pass through the URL so the page stays shareable.

No JS? Fill the form by hand. The geolocation button needs JavaScript.